Location: Unspecified
(52.0000°N, 4.4000°E)
Time: 00:29:50
(UTC+00:00)

Cosmos 1805 Rocket - Pass Details

Date: 14 May 2025
Orbit: 600 x 623 km, 82.5° (Epoch: 22 June)

Event Time Altitude Azimuth Distance (km) Brightness Sun altitude
Rises 23:23:41 0° 351° (N) 2,921 8.7 -19.0°
Reaches altitude 10° 23:25:57 10° 354° (N) 2,009 7.4 -19.1°
Maximum altitude 23:30:23 65° 77° (ENE) 688 3.7 -19.1°
Enters shadow 23:31:54 39° 145° (SE) 944 4.1 -19.1°
